GMT,Max TemperatureF,Mean TemperatureF,Min TemperatureF,Max Dew PointF,MeanDew PointF,Min DewpointF,Max Humidity, Mean Humidity, Min Humidity, Max Sea Level PressureIn, Mean Sea Level PressureIn, Min Sea Level PressureIn, Max VisibilityMiles, Mean VisibilityMiles, Min VisibilityMiles, Max Wind SpeedMPH, Mean Wind SpeedMPH, Max Gust SpeedMPH,PrecipitationIn, CloudCover, Events, WindDirDegrees
2010-12-1,32,31,30,27,22,18,80,68,55,29.83,29.75,29.68,6,6,4,15,12,29,0.00,6,Snow,37
2010-12-2,32,30,28,28,26,23,93,83,75,29.86,29.76,29.68,6,5,1,13,9,,0.00,5,Snow,40
2010-12-3,37,29,23,30,24,21,100,89,75,29.92,29.87,29.74,6,4,1,15,6,,0.00,5,Snow,277
2010-12-4,42,38,35,39,37,32,100,92,81,29.74,29.66,29.59,6,5,1,14,9,25,0.00,5,Rain,220
2010-12-5,39,34,28,37,33,28,100,89,75,29.68,29.66,29.65,6,5,0,8,6,,0.00,5,Fog,304
2010-12-6,30,28,26,28,28,27,100,96,93,29.65,29.61,29.59,4,1,0,6,3,,0.00,6,Fog,11
2010-12-7,35,32,28,30,28,23,100,87,69,29.74,29.69,29.65,6,4,0,7,4,,0.00,5,Fog,21
2010-12-8,37,32,28,32,29,21,93,86,74,30.24,29.93,29.74,6,5,3,10,8,,0.00,5,,356
2010-12-9,39,34,28,32,27,21,93,79,65,30.48,30.42,30.27,6,6,6,14,9,,0.00,2,,283
2010-12-10,44,38,33,39,36,30,93,86,81,30.51,30.46,30.36,6,6,5,17,10,,0.00,5,,271
2010-12-11,48,44,41,39,38,37,87,79,71,30.36,30.28,30.18,6,6,6,10,8,,0.00,6,,296
2010-12-12,42,36,30,36,34,28,93,85,76,30.30,30.25,30.18,6,6,4,8,4,,0.00,5,,357
2010-12-13,39,34,30,36,33,28,100,91,81,30.36,30.34,30.30,6,4,0,8,4,,0.00,4,Fog-Rain,319
2010-12-14,41,37,33,37,34,28,93,84,70,30.63,30.50,30.36,6,6,4,7,5,,0.00,4,Rain,16
2010-12-15,41,36,30,39,33,27,93,86,80,30.66,30.55,30.33,6,4,1,9,5,,0.00,5,Rain,308
2010-12-16,44,36,28,41,34,21,93,84,74,30.30,29.82,29.56,6,6,2,22,11,22,0.00,4,Rain-Snow,292
2010-12-17,32,28,23,27,22,19,93,85,74,29.62,29.48,29.39,6,5,1,14,8,,0.00,3,Snow,284
2010-12-18,32,26,21,30,26,19,100,92,80,29.39,29.29,29.18,6,5,0,14,5,,0.00,6,Rain-Snow,145
2010-12-19,32,26,19,27,23,18,93,87,80,29.53,29.37,29.27,6,6,6,9,5,,0.00,4,,23
2010-12-20,33,24,15,32,23,12,100,88,80,29.59,29.56,29.53,6,4,2,15,5,26,0.00,5,Snow,64
2010-12-21,35,34,32,32,32,30,93,91,87,29.65,29.60,29.53,4,3,2,10,6,,0.00,6,,40
2010-12-22,35,34,32,32,31,27,93,90,80,29.80,29.70,29.65,6,4,1,12,5,,0.00,6,,13
2010-12-23,35,32,30,28,27,23,86,76,70,29.95,29.84,29.77,6,6,6,12,9,24,0.00,5,,13
2010-12-24,35,32,30,30,28,25,87,80,70,30.24,30.09,29.95,6,6,6,10,8,,0.00,5,,350
2010-12-25,32,28,24,27,25,21,93,87,80,30.42,30.35,30.24,6,4,2,8,5,,0.00,6,,300
2010-12-26,33,26,19,28,23,18,93,81,65,30.42,30.34,30.18,6,6,6,7,4,,0.00,,,201
2010-12-27,39,36,33,34,31,28,87,77,65,30.18,30.01,29.89,6,6,4,15,8,,0.00,2,Rain,167
2010-12-28,46,42,37,45,40,34,100,92,87,30.04,29.94,29.86,6,2,1,10,7,,0.00,7,Rain,147
2010-12-29,48,46,44,46,45,43,100,94,93,30.18,30.10,30.04,4,2,0,7,3,,0.00,6,Fog-Rain,120
2010-12-30,46,44,42,45,42,37,100,92,81,30.30,30.24,30.18,6,3,1,8,5,,0.00,6,,84
2010-12-31,44,42,41,41,39,36,93,87,76,30.33,30.30,30.27,6,5,3,9,4,,0.00,7,,13